Location: Belfast
(54.5830°N, 5.9330°W)
Time: 13:00:34
(UTC+00:00)

ISS - Pass Details

Date: 11 December 2017
Orbit: 402 x 406 km, 51.6° (Epoch: 16 December)

Event Time Altitude Azimuth Distance (km) Brightness Sun altitude
Rises 18:43:01 0° 276° (W) 2,333 1.4 -22.3°
Reaches altitude 10° 18:45:22 10° 261° (W) 1,469 0.1 -22.6°
Maximum altitude 18:48:02 23° 207° (SSW) 924 -1.7 -23.0°
Enters shadow 18:48:22 22° 197° (SSW) 935 -1.8 -23.0°
